Flag for U.S.A. Weather past 2 weeks in Albany, New York, U.S.A.

Now
59 °F

Partly sunny.


Feels Like: 58 °F
Forecast: 37 / 70 °F
Wind: 6 mph from North

Location: Albany County Airport


UV Index: 5 (Moderate)

Visibility: 10 mi


Pressure: 30.08 "Hg

Humidity: 27%

Dew point: 25 °F

Location of AlbanyLocation

Historic Weather in Albany

°F

Albany temperature yesterday

Maximum temperature yesterday: 63 °F (at 5:51 PM)
Minimum temperature yesterday: 31 °F (at 5:51 AM)
Average temperature yesterday: 49 °F

Past Weeks' High & Low Weather Summary

 TemperatureHumidityPressure
High79 °F (Apr 13, 5:51 PM)97% (Apr 12, 12:51 AM)30.78 "Hg (Apr 12, 12:51 AM)
Low26 °F (Apr 17, 5:51 AM)15% (Apr 20, 3:51 PM)29.31 "Hg (Apr 8, 12:51 PM)
Average49 °F53%30.08 "Hg
* Reported Apr 6 10:51 AM — Apr 21 10:51 AM, Albany, Weather by CustomWeather, © 2014

Note: Actual official high and low records may vary slightly from our data, if they occured in-between our weather recording intervals... More about our weather records

Advertising

Historic Weather Conditions — Data for Previous 24 hours

 ConditionsComfort  
Time TempWeatherWind HumidityBarometerVisibility
10:51 AM
Apr 21
55 °FPartly sunny.10 mph31%30.12 "Hg10 mi
9:51 AM50 °FPartly sunny.8 mph41%30.15 "Hg10 mi
8:51 AM48 °FPartly sunny.9 mph46%30.18 "Hg10 mi
7:51 AM45 °FPartly sunny.13 mph49%30.19 "Hg10 mi
6:51 AM41 °FPassing clouds.No wind58%30.20 "Hg10 mi
5:51 AM40 °FPassing clouds.No wind60%30.19 "Hg10 mi
4:51 AM43 °FPassing clouds.7 mph53%30.20 "Hg10 mi
3:51 AM44 °FPassing clouds.8 mph51%30.20 "Hg10 mi
2:51 AM45 °FPassing clouds.7 mph48%30.23 "Hg10 mi
1:51 AM46 °FPassing clouds.8 mph44%30.24 "Hg10 mi
12:51 AM48 °FClear.12 mph37%30.26 "Hg10 mi
11:51 PM
Apr 20
50 °FPassing clouds.14 mph33%30.27 "Hg10 mi
10:51 PM53 °FPassing clouds.18 mph32%30.28 "Hg10 mi
9:51 PM56 °FPassing clouds.15 mph27%30.29 "Hg10 mi
8:51 PM57 °FPassing clouds.7 mph22%30.29 "Hg10 mi
7:51 PM59 °FPassing clouds.8 mph21%30.29 "Hg10 mi
6:51 PM62 °FScattered clouds.8 mph18%30.30 "Hg10 mi
5:51 PM63 °FScattered clouds.9 mph17%30.32 "Hg10 mi
4:51 PM62 °FPartly sunny.12 mph17%30.34 "Hg10 mi
3:51 PM62 °FPartly sunny.8 mph15%30.37 "Hg10 mi
2:51 PM60 °FPartly sunny.N/A18%30.40 "Hg10 mi
1:51 PM58 °FPartly sunny.5 mph18%30.42 "Hg10 mi
12:51 PM56 °FPartly sunny.6 mph24%30.45 "Hg10 mi
Weather by CustomWeather, © 2014

See weather overview